(157374) = 2004 TS138

Discovered at Anderson Mesa on 2004-10-09 by LONEOS.

Orbit

Orbit type: Main Belt

Note: WebGL enabled browser required.

epoch2023-02-25.0
epoch JD2460000.5
perihelion date2022-10-04.20151
perihelion JD2459856.70151
argument of perihelion (°)242.09751
ascending node (°)286.87961
inclination (°)8.71936
eccentricity0.0142167
perihelion distance (AU)2.9783082
Tisserand w.r.t. Jupiter3.2
ΔV w.r.t. Earth (km/sec)11.0
semimajor axis (AU)3.0212604
mean anomaly (°)26.98832
mean daily motion (°/day)0.18768160
aphelion distance (AU)3.064
period (years)5.25
P-vector [x]-0.97177725
P-vector [y]0.23143512
P-vector [z]-0.04568110
Q-vector [x]-0.18602558
Q-vector [y]-0.87089560
Q-vector [z]-0.45490147
absolute magnitude15.34
phase slope0.15
uncertainty0
referenceMPO 745323
observations used513
oppositions18
arc length (days)10875
first opposition used1993
last opposition used2023
residual rms (arc-secs)0.70
perturbers coarse indicatorM-v
perturbers precise indicator003Ek
first observation date used1993-08-16.0
last observation date used2023-05-26.0
computer nameMPCLINUX
JD of orbit computation2456937.187195
perihelion JD uncertainty (days)1.3982E-03
argument of perihelion uncertainty (°)2.6479E-04
ascending node uncertainty (°)4.2865E-05
inclination uncertainty (°)6.4376E-06
eccentricity uncertainty 7.7618E-08
perihelion distance uncertainty (AU)2.2963E-07
Minimum Orbit Intersection Distances (in AU)
for orbit epoch: 2460000.5, reference: E2023-KF8
Mercury2.54604
Venus2.27371
Earth1.9988
Mars1.34851
Jupiter2.00228
Saturn6.0575
Uranus15.4989
Neptune26.8505

Observations

528 total observations over interval: 1993 08 16.35474 – 2023 05 26.258057
These data are available for download (format description).

Date (UT) J2000 RA J2000 Dec Magn Location Ref
1993 08 16.35474 22 15 26.19 -01 12 06.3   691 – Steward Observatory, Kitt Peak-Spacewatch MPS 149554
1993 08 16.37601 22 15 25.16 -01 12 08.5 19.8 V 691 – Steward Observatory, Kitt Peak-Spacewatch MPS 149554
1993 08 16.39764 22 15 24.11 -01 12 11.4   691 – Steward Observatory, Kitt Peak-Spacewatch MPS 149554
1996 02 17.27822 09 25 50.14 +07 02 08.7   691 – Steward Observatory, Kitt Peak-Spacewatch MPS 149554
1996 02 17.29921 09 25 49.04 +07 02 11.6   691 – Steward Observatory, Kitt Peak-Spacewatch MPS 149554
1996 02 17.32022 09 25 47.95 +07 02 14.3 19.2 V 691 – Steward Observatory, Kitt Peak-Spacewatch MPS 149554
1998 07 27.05127 21 01 46.81 -11 31 16.1 20.3 V 910 – Caussols-ODAS MPS 149554
1998 07 27.07157 21 01 45.83 -11 31 16.9 20.1 V 910 – Caussols-ODAS MPS 149554
1998 07 27.09056 21 01 44.87 -11 31 18.1 20.4 V 910 – Caussols-ODAS MPS 149554
2004 09 10.31247 00 56 55.58 +19 22 01.2 19.5   704 – Lincoln Laboratory ETS, New Mexico MPS 118578
2004 09 10.32370 00 56 55.22 +19 22 00.0 20.1   704 – Lincoln Laboratory ETS, New Mexico MPS 118578
2004 09 10.33493 00 56 54.90 +19 22 01.0 20.7   704 – Lincoln Laboratory ETS, New Mexico MPS 118578
2004 09 18.30291 00 51 49.28 +19 12 09.9 20.0   704 – Lincoln Laboratory ETS, New Mexico MPS 118578
2004 09 18.31479 00 51 48.74 +19 12 08.9 20.3   704 – Lincoln Laboratory ETS, New Mexico MPS 118578
2004 09 18.32669 00 51 48.28 +19 12 06.9 19.9   704 – Lincoln Laboratory ETS, New Mexico MPS 118578
2004 09 18.33858 00 51 47.67 +19 12 06.3 20.5   704 – Lincoln Laboratory ETS, New Mexico MPS 118578
2004 09 18.35047 00 51 47.19 +19 12 05.2 20.3   704 – Lincoln Laboratory ETS, New Mexico MPS 118578
2004 09 22.33262 00 48 55.20 +19 02 54.0 19.4 R 699 – Lowell Observatory-LONEOS MPS 119874
2004 09 22.34889 00 48 54.52 +19 02 50.1   699 – Lowell Observatory-LONEOS MPS 119874
2004 09 22.36513 00 48 53.68 +19 02 48.4   699 – Lowell Observatory-LONEOS MPS 119874
2004 09 22.38137 00 48 52.97 +19 02 45.8   699 – Lowell Observatory-LONEOS MPS 119874
2004 10 09.21552 00 35 41.03 +17 56 09.7 19.2 R 699 – Lowell Observatory-LONEOS MPS 117852
2004 10 09.23176 00 35 40.25 +17 56 04.7   699 – Lowell Observatory-LONEOS MPS 117852
2004 10 09.24799 00 35 39.41 +17 56 00.8   699 – Lowell Observatory-LONEOS MPS 117852
2004 10 09.26423 00 35 38.67 +17 55 56.7   699 – Lowell Observatory-LONEOS MPS 117852
2004 10 10.25070 00 34 52.16 +17 50 52.6 19.0   704 – Lincoln Laboratory ETS, New Mexico MPS 117852
2004 10 10.26172 00 34 51.62 +17 50 48.9 19.3   704 – Lincoln Laboratory ETS, New Mexico MPS 117852
2004 10 10.27273 00 34 51.12 +17 50 46.7 19.6   704 – Lincoln Laboratory ETS, New Mexico MPS 117852
2004 10 10.28376 00 34 50.60 +17 50 42.2 20.1   704 – Lincoln Laboratory ETS, New Mexico MPS 117852
2004 10 10.29482 00 34 50.05 +17 50 38.4 19.8   704 – Lincoln Laboratory ETS, New Mexico MPS 117852
2004 10 15.25098 00 31 02.49 +17 23 51.2 19.4   704 – Lincoln Laboratory ETS, New Mexico MPS 118578
2004 10 15.26194 00 31 01.90 +17 23 47.6 19.7   704 – Lincoln Laboratory ETS, New Mexico MPS 118578
2004 10 15.28383 00 31 00.93 +17 23 40.8 19.9   704 – Lincoln Laboratory ETS, New Mexico MPS 118578
2004 10 15.29479 00 31 00.41 +17 23 36.7 19.8   704 – Lincoln Laboratory ETS, New Mexico MPS 118578
2004 11 03.14942 00 19 28.49 +15 33 17.9 19.7   644 – Palomar Mountain/NEAT MPS 118578
2004 11 03.17044 00 19 27.90 +15 33 10.9 19.6   644 – Palomar Mountain/NEAT MPS 118578
2004 11 03.19120 00 19 27.32 +15 33 03.4 19.8   644 – Palomar Mountain/NEAT MPS 118578
2005 12 04.43192 07 05 13.81 +25 18 42.3 19.9 V 691 – Steward Observatory, Kitt Peak-Spacewatch MPS 153703
2005 12 04.44924 07 05 13.14 +25 18 41.5 20.0 V 691 – Steward Observatory, Kitt Peak-Spacewatch MPS 153703
2005 12 04.47000 07 05 12.34 +25 18 40.3 20.1 V 691 – Steward Observatory, Kitt Peak-Spacewatch MPS 153703
2005 12 08.44017 07 02 33.27 +25 15 13.3 20.0 V 691 – Steward Observatory, Kitt Peak-Spacewatch MPS 153703
2005 12 08.45752 07 02 32.51 +25 15 12.2 20.0 V 691 – Steward Observatory, Kitt Peak-Spacewatch MPS 153703
2005 12 08.47488 07 02 31.74 +25 15 11.2 20.0 V 691 – Steward Observatory, Kitt Peak-Spacewatch MPS 153703
2005 12 30.15688 06 43 34.48 +24 49 58.6 19.5 V 691 – Steward Observatory, Kitt Peak-Spacewatch MPS 156598
2005 12 30.18192 06 43 33.03 +24 49 56.6 19.5 V 691 – Steward Observatory, Kitt Peak-Spacewatch MPS 156598
2005 12 30.20698 06 43 31.53 +24 49 54.8 19.3 V 691 – Steward Observatory, Kitt Peak-Spacewatch MPS 156598
2005 12 31.33145 06 42 26.04 +24 48 11.6 18.9   704 – Lincoln Laboratory ETS, New Mexico MPS 157786
2005 12 31.35902 06 42 24.45 +24 48 07.6 19.3   704 – Lincoln Laboratory ETS, New Mexico MPS 157786
2005 12 31.38569 06 42 22.75 +24 48 04.9 18.9   704 – Lincoln Laboratory ETS, New Mexico MPS 157786
2006 01 05.17591 06 37 46.62 +24 40 07.7 19.5 V 691 – Steward Observatory, Kitt Peak-Spacewatch MPS 157786
2006 01 05.19322 06 37 45.60 +24 40 06.0 19.4 V 691 – Steward Observatory, Kitt Peak-Spacewatch MPS 157786
2006 01 05.21051 06 37 44.59 +24 40 04.1 19.4 V 691 – Steward Observatory, Kitt Peak-Spacewatch MPS 157786
2006 01 07.27041 06 35 47.64 +24 36 23.8 19.2   704 – Lincoln Laboratory ETS, New Mexico MPS 158989
2006 01 07.28438 06 35 46.81 +24 36 22.9 19.6   704 – Lincoln Laboratory ETS, New Mexico MPS 158989
2006 01 07.29741 06 35 46.04 +24 36 21.6 19.4   704 – Lincoln Laboratory ETS, New Mexico MPS 158989
2006 01 07.31264 06 35 45.19 +24 36 18.9 19.1   704 – Lincoln Laboratory ETS, New Mexico MPS 158989
2007 03 14.32781 12 05 55.21 -14 14 06.1 19.8 V 703 – Catalina Sky Survey MPS 203060
2007 03 14.33543 12 05 54.78 -14 14 06.0 19.2 V 703 – Catalina Sky Survey MPS 203060
2007 03 14.34304 12 05 54.49 -14 14 03.8 19.4 V 703 – Catalina Sky Survey MPS 203060
2007 03 14.35066 12 05 54.06 -14 14 03.0 20.3 V 703 – Catalina Sky Survey MPS 203060
2007 04 16.19690 11 41 50.46 -11 41 05.8 20.4 V 703 – Catalina Sky Survey MPS 206913
2007 04 16.20394 11 41 50.24 -11 41 03.6 19.7 V 703 – Catalina Sky Survey MPS 206913
2007 04 16.21099 11 41 49.81 -11 41 01.5 19.7 V 703 – Catalina Sky Survey MPS 206913
2007 04 16.21803 11 41 49.77 -11 40 59.0 20.5 V 703 – Catalina Sky Survey MPS 206913
2009 07 23.98398 23 48 22.80 +08 49 35.6 20.0   114 – Engelhardt Observatory, Zelenchukskaya Station MPS 290080
2009 07 23.98773 23 48 22.79 +08 49 36.1 19.8   114 – Engelhardt Observatory, Zelenchukskaya Station MPS 290080
2009 07 23.99163 23 48 22.78 +08 49 37.1 19.7   114 – Engelhardt Observatory, Zelenchukskaya Station MPS 290080
2009 07 23.99553 23 48 22.77 +08 49 38.1 19.5   114 – Engelhardt Observatory, Zelenchukskaya Station MPS 290080
2009 07 24.00240 23 48 22.76 +08 49 39.7 20.1   114 – Engelhardt Observatory, Zelenchukskaya Station MPS 290080
2009 09 14.33955 23 21 57.81 +08 51 17.4 19.9 V 703 – Catalina Sky Survey MPS 295634
2009 09 14.34363 23 21 57.56 +08 51 16.0 19.6 V 703 – Catalina Sky Survey MPS 295634
2009 09 14.34774 23 21 57.42 +08 51 15.6 19.6 V 703 – Catalina Sky Survey MPS 295634
2009 09 14.35193 23 21 57.20 +08 51 15.3 19.1 V 703 – Catalina Sky Survey MPS 295634
2009 09 25.18221 23 13 40.65 +08 04 37.3 20.1 V 703 – Catalina Sky Survey MPS 297687
2009 09 25.18884 23 13 40.33 +08 04 33.5 19.1 V 703 – Catalina Sky Survey MPS 297687
2009 09 25.19551 23 13 39.90 +08 04 31.0 18.9 V 703 – Catalina Sky Survey MPS 297687
2009 09 25.20210 23 13 39.61 +08 04 30.0 18.6 V 703 – Catalina Sky Survey MPS 297687
2010 11 05.35966 05 32 06.61 +30 16 45.8   691 – Steward Observatory, Kitt Peak-Spacewatch MPS 357064
2010 11 05.37734 05 32 06.13 +30 16 45.2   691 – Steward Observatory, Kitt Peak-Spacewatch MPS 357064
2010 11 05.39503 05 32 05.65 +30 16 44.8   691 – Steward Observatory, Kitt Peak-Spacewatch MPS 357064
2010 12 07.26175 05 07 40.46 +29 21 26.3 19.5   704 – Lincoln Laboratory ETS, New Mexico MPS 362181
2010 12 07.27475 05 07 39.62 +29 21 23.5 20.0   704 – Lincoln Laboratory ETS, New Mexico MPS 362181
2010 12 07.28788 05 07 38.80 +29 21 21.0 19.7   704 – Lincoln Laboratory ETS, New Mexico MPS 362181
2010 12 07.30111 05 07 38.03 +29 21 19.0 19.9   704 – Lincoln Laboratory ETS, New Mexico MPS 362181
